Change the Weather History Date:

Tuesday, May 13, 2014

  Actual Average (KPOU) Record (KPOU)
Temperature  
Mean Temperature 64 °F 58 °F  
Max Temperature 72 °F 71 °F 88 °F (1985)
Min Temperature 55 °F 45 °F 30 °F (1967)
Degree Days  
Heating Degree Days 0 8  
Month to date heating degree days 122  
Since 1 July heating degree days 6061  
Cooling Degree Days 0 0  
Month to date cooling degree days 7  
Year to date cooling degree days 12  
Growing Degree Days 14 (Base 50)    
Moisture  
Dew Point 48 °F    
Average Humidity 58    
Maximum Humidity 90    
Minimum Humidity 38    
Precipitation  
Precipitation 0.00 in 0.13 in 1.66 in (2002)
Month to date precipitation 1.66  
Year to date precipitation 14.75  
Sea Level Pressure  
Sea Level Pressure 30.16 in    
Wind  
Wind Speed 5 mph (SSE)    
Max Wind Speed 12 mph    
Max Gust Speed 20 mph    
Visibility 10 miles    
Events      
T = Trace of Precipitation, MM = Missing Value Source: NWS Daily Summary

Daily Weather History Graph

Daily Weather History Graph

Search for Another Location

Airport or City:

Trip Planner

Search our weather history database for the weather conditions in past years. The results will help you decide how hot, cold, wet, or windy it might be!

Date:

Astronomy

May. 13, 2014 Rise Set
Actual Time 5:39 AM EDT 8:07 PM EDT
Civil Twilight 5:08 AM EDT 8:38 PM EDT
Nautical Twilight 4:29 AM EDT 9:18 PM EDT
Astronomical Twilight 3:46 AM EDT 10:01 PM EDT
Moon 7:05 PM EDT (5/13) 4:56 AM EDT (5/13)
Length of Visible Light 15h 30m
Length of Day
14h 27m
Waxing Gibbous, 98% of the Moon is Illuminated
May 13
Waxing Gibbous
May 14
Full
May 21
Last Quarter
May 28
New
Jun 5
First Quarter

Hourly Weather History & Observations

Time (EDT) Temp. Dew Point Humidity Pressure Visibility Wind Dir Wind Speed Gust Speed Precip Events Conditions
12:54 AM 63.0 °F 57.0 °F 81% 30.02 in 10.0 mi South 4.6 mph - N/A   Clear
2:54 AM 59.0 °F 55.9 °F 90% 30.03 in 10.0 mi Calm Calm - N/A   Clear
3:54 AM 57.9 °F 55.0 °F 90% 30.06 in 10.0 mi Calm Calm - N/A   Clear
4:54 AM 57.9 °F 53.1 °F 84% 30.07 in 10.0 mi NNE 5.8 mph - N/A   Clear
5:54 AM 59.0 °F 50.0 °F 72% 30.08 in 10.0 mi Calm Calm - N/A   Clear
6:54 AM 59.0 °F 54.0 °F 83% 30.11 in 10.0 mi Calm Calm - N/A   Clear
7:54 AM 64.9 °F 54.0 °F 68% 30.15 in 10.0 mi East 10.4 mph - N/A   Clear
9:54 AM 62.1 °F 45.0 °F 53% 30.20 in 10.0 mi ESE 9.2 mph - N/A   Overcast
10:54 AM 64.9 °F 46.0 °F 50% 30.20 in 10.0 mi ESE 5.8 mph - N/A   Mostly Cloudy
12:54 PM 69.1 °F 48.0 °F 47% 30.19 in 10.0 mi Variable 6.9 mph - N/A   Mostly Cloudy
1:54 PM 71.1 °F 48.0 °F 44% 30.18 in 10.0 mi South 4.6 mph - N/A   Partly Cloudy
2:54 PM 72.0 °F 46.0 °F 40% 30.17 in 10.0 mi South 11.5 mph 19.6 mph N/A   Clear
3:54 PM 72.0 °F 45.0 °F 38% 30.18 in 10.0 mi SSW 9.2 mph 18.4 mph N/A   Clear
4:54 PM 72.0 °F 46.9 °F 41% 30.18 in 10.0 mi South 10.4 mph - N/A   Clear
5:54 PM 70.0 °F 45.0 °F 41% 30.17 in 10.0 mi SSE 10.4 mph - N/A   Clear
6:54 PM 68.0 °F 44.1 °F 42% 30.18 in 10.0 mi SSE 11.5 mph - N/A   Clear
7:54 PM 64.0 °F 43.0 °F 46% 30.21 in 10.0 mi SSE 5.8 mph - N/A   Clear
8:54 PM 63.0 °F 42.1 °F 46% 30.22 in 10.0 mi SSE 3.5 mph - N/A   Clear
9:54 PM 59.0 °F 44.1 °F 58% 30.24 in 10.0 mi Calm Calm - N/A   Clear
10:54 PM 57.9 °F 39.9 °F 51% 30.26 in 10.0 mi South 6.9 mph - N/A   Clear
11:54 PM 55.9 °F 43.0 °F 62% 30.27 in 10.0 mi SSW 6.9 mph - N/A   Clear